{"data":{"norad_id":59645,"intl_designator":"2024-082Q","name":"STARLINK-31795","alt_names":[],"object_type":"PAYLOAD","status":"ACTIVE","operator":null,"country":"US","launch_date":"2024-05-03","launch_site_code":"AFETR","launch_vehicle":null,"mission":null,"orbit_class":"UNKNOWN","rcs_meters":null,"size_class":null,"mass_kg":null,"dimensions":null,"purposes":["comms"],"wikipedia_slug":null,"has_3d_model":false,"image_url":null,"decayed_at":null,"tle_current":{"epoch":"2026-05-24T22:51:59.307264Z","epoch_age_seconds":93184,"freshness":"FRESH","line1":"1 59645U 24082Q   26144.95276976 -.00002530  00000+0 -82456-4 0  9993","line2":"2 59645  43.0056  10.5485 0001313 281.6364  78.4341 15.27576890117141","mean_motion":15.2757689,"eccentricity":0.0001313,"inclination_deg":43.0056,"raan_deg":10.5485,"arg_perigee_deg":281.6364,"mean_anomaly_deg":78.4341,"bstar":-8.2456e-5,"rev_number":11714,"period_min":94.266940631709,"perigee_km":482.15753355713,"apogee_km":483.95928347141,"semimajor_km":6861.1954085143,"source":"CELESTRAK","updated_at":"2026-05-25T13:38:19.015723Z"}}}